Location: La Sioule Rivi�re
(46.3664°N, 3.3197°E)
Time: 23:56:24
(UTC+00:00)

H-2A R/B - Visible Passes

Search period start: 01 March 2021 00:00
Search period end: 11 March 2021 00:00
Orbit: 734 x 836 km, 98.2° (Epoch: 01 March)

Date Brightness Start Highest point End Pass type
(mag) Time Alt. Az. Time Alt. Az. Time Alt. Az.
01 Mar 3.5 19:05:16 10° SSW 19:10:23 41° W 19:15:33 10° NNW visible
02 Mar 2.4 18:33:52 10° S 18:39:18 75° WSW 18:44:47 10° NNW visible
02 Mar 5.3 20:18:23 10° W 20:19:37 11° W 20:20:51 10° WNW visible
03 Mar 2.2 18:02:59 10° SSE 18:08:22 63° ENE 18:13:45 10° N visible
03 Mar 4.7 19:44:13 10° SW 19:48:11 20° W 19:52:11 10° NW visible
04 Mar 3.8 19:11:56 10° SSW 19:16:56 36° W 19:21:57 10° NNW visible
05 Mar 2.7 18:40:24 10° S 18:45:49 65° WSW 18:51:15 10° NNW visible
06 Mar 2.2 18:09:25 10° SSE 18:14:50 72° ENE 18:20:16 10° N visible
06 Mar 4.9 19:51:10 10° SW 19:54:47 18° W 19:58:24 10° NW visible
07 Mar 4.0 19:18:40 10° SSW 19:23:29 32° W 19:28:18 10° NNW visible
08 Mar 2.9 18:46:59 10° S 18:52:20 57° W 18:57:42 10° NNW visible
09 Mar 2.2 18:15:53 10° SSE 18:21:20 81° ENE 18:26:46 10° NNW visible
09 Mar 5.0 19:58:13 10° WSW 20:01:22 15° W 20:04:31 10° NW visible
10 Mar 4.3 19:25:25 10° SSW 19:30:02 28° W 19:34:39 10° NW visible
